Time,TemperatureF,DewpointF,PressureIn,WindDirection,WindDirectionDegrees,WindSpeedMPH,WindSpeedGustMPH,Humidity,HourlyPrecipIn,Conditions,Clouds,dailyrainin,SoftwareType,DateUTC
2013-07-12 00:14:00,77.4,74.0,29.95,WNW,291,0.0,-999.0,89,-99.99,,,0.00,weatherlink.com 1.10,2013-07-12 04:14:00,
2013-07-12 00:29:00,77.1,74.0,29.95,WNW,290,0.0,-999.0,90,-99.99,,,0.00,weatherlink.com 1.10,2013-07-12 04:29:00,
2013-07-12 00:44:00,76.8,74.0,29.95,WNW,291,0.0,-999.0,90,-99.99,,,0.00,weatherlink.com 1.10,2013-07-12 04:44:00,
2013-07-12 00:59:00,76.9,74.0,29.94,WNW,291,0.0,-999.0,91,-99.99,,,0.00,weatherlink.com 1.10,2013-07-12 04:59:00,
2013-07-12 01:14:00,77.1,74.0,29.94,WNW,291,0.0,-999.0,90,-99.99,,,0.00,weatherlink.com 1.10,2013-07-12 05:14:00,
2013-07-12 01:29:00,77.1,74.0,29.93,WNW,291,0.0,-999.0,90,-99.99,,,0.00,weatherlink.com 1.10,2013-07-12 05:29:00,
2013-07-12 01:44:00,76.9,74.0,29.93,WNW,290,0.0,-999.0,90,-99.99,,,0.00,weatherlink.com 1.10,2013-07-12 05:44:00,
2013-07-12 01:59:00,76.8,74.0,29.93,WNW,289,0.0,-999.0,91,-99.99,,,0.00,weatherlink.com 1.10,2013-07-12 05:59:00,
2013-07-12 02:14:00,77.1,74.0,29.92,WNW,290,0.0,-999.0,91,-99.99,,,0.00,weatherlink.com 1.10,2013-07-12 06:14:00,
2013-07-12 02:29:00,77.1,74.0,29.92,NE,53,1.0,-999.0,91,-99.99,,,0.00,weatherlink.com 1.10,2013-07-12 06:29:00,
2013-07-12 02:44:00,77.4,75.0,29.92,ENE,57,0.0,-999.0,92,-99.99,,,0.00,weatherlink.com 1.10,2013-07-12 06:44:00,
2013-07-12 02:59:00,77.3,75.0,29.92,ENE,57,0.0,-999.0,92,-99.99,,,0.00,weatherlink.com 1.10,2013-07-12 06:59:00,
2013-07-12 03:14:00,77.1,75.0,29.92,NE,56,0.0,-999.0,93,-99.99,,,0.00,weatherlink.com 1.10,2013-07-12 07:14:00,
2013-07-12 03:29:00,77.0,75.0,29.92,ENE,57,0.0,-999.0,94,-99.99,,,0.00,weatherlink.com 1.10,2013-07-12 07:29:00,
2013-07-12 03:44:00,77.1,75.0,29.92,NE,55,0.0,-999.0,94,-99.99,,,0.00,weatherlink.com 1.10,2013-07-12 07:44:00,
2013-07-12 03:59:00,77.2,75.0,29.91,NE,55,0.0,-999.0,94,-99.99,,,0.00,weatherlink.com 1.10,2013-07-12 07:59:00,
2013-07-12 04:14:00,76.8,75.0,29.91,NE,55,0.0,-999.0,94,-99.99,,,0.00,weatherlink.com 1.10,2013-07-12 08:14:00,
2013-07-12 04:29:00,76.8,75.0,29.91,NE,55,0.0,-999.0,95,-99.99,,,0.00,weatherlink.com 1.10,2013-07-12 08:29:00,
2013-07-12 04:44:00,77.0,75.0,29.91,WNW,302,0.0,-999.0,94,-99.99,,,0.00,weatherlink.com 1.10,2013-07-12 08:44:00,
2013-07-12 04:59:00,76.8,75.0,29.91,WNW,302,0.0,-999.0,94,-99.99,,,0.00,weatherlink.com 1.10,2013-07-12 08:59:00,
2013-07-12 05:14:00,76.6,75.0,29.91,WNW,301,0.0,-999.0,95,-99.99,,,0.00,weatherlink.com 1.10,2013-07-12 09:14:00,
2013-07-12 05:29:00,76.8,75.0,29.91,WNW,301,0.0,-999.0,95,-99.99,,,0.00,weatherlink.com 1.10,2013-07-12 09:29:00,
2013-07-12 05:44:00,76.5,75.0,29.91,WNW,302,0.0,-999.0,95,-99.99,,,0.00,weatherlink.com 1.10,2013-07-12 09:44:00,
2013-07-12 05:59:00,76.1,75.0,29.91,WNW,302,0.0,-999.0,95,-99.99,,,0.00,weatherlink.com 1.10,2013-07-12 09:59:00,
2013-07-12 06:14:00,76.5,75.0,29.91,WNW,302,0.0,-999.0,96,-99.99,,,0.00,weatherlink.com 1.10,2013-07-12 10:14:00,
2013-07-12 06:29:00,76.2,75.0,29.91,WNW,302,0.0,-999.0,95,-99.99,,,0.00,weatherlink.com 1.10,2013-07-12 10:29:00,
2013-07-12 06:44:00,76.3,75.0,29.92,WNW,302,0.0,-999.0,96,-99.99,,,0.00,weatherlink.com 1.10,2013-07-12 10:44:00,
2013-07-12 06:59:00,76.3,75.0,29.92,WNW,301,0.0,-999.0,96,-99.99,,,0.00,weatherlink.com 1.10,2013-07-12 10:59:00,
2013-07-12 07:14:00,76.7,76.0,29.92,WNW,302,0.0,-999.0,96,-99.99,,,0.00,weatherlink.com 1.10,2013-07-12 11:14:00,
2013-07-12 07:29:00,77.2,76.0,29.93,WNW,302,0.0,-999.0,96,-99.99,,,0.00,weatherlink.com 1.10,2013-07-12 11:29:00,
2013-07-12 07:44:00,77.6,76.0,29.93,WNW,302,0.0,-999.0,95,-99.99,,,0.00,weatherlink.com 1.10,2013-07-12 11:44:00,
2013-07-12 08:00:00,77.7,76.0,29.94,WNW,301,0.0,-999.0,95,-99.99,,,0.00,weatherlink.com 1.10,2013-07-12 12:00:00,
2013-07-12 08:15:00,79.6,78.0,29.94,West,273,0.0,-999.0,94,-99.99,,,0.00,weatherlink.com 1.10,2013-07-12 12:15:00,
2013-07-12 08:30:00,82.4,78.0,29.94,WSW,250,0.0,-999.0,87,-99.99,,,0.00,weatherlink.com 1.10,2013-07-12 12:30:00,
2013-07-12 08:45:00,84.3,78.0,29.94,SSE,153,0.0,-999.0,80,-99.99,,,0.00,weatherlink.com 1.10,2013-07-12 12:45:00,
2013-07-12 09:00:00,85.9,77.0,29.94,SSW,210,0.0,-999.0,75,-99.99,,,0.00,weatherlink.com 1.10,2013-07-12 13:00:00,
2013-07-12 09:15:00,86.5,78.0,29.95,NW,309,0.0,-999.0,75,-99.99,,,0.00,weatherlink.com 1.10,2013-07-12 13:15:00,
2013-07-12 09:30:00,86.6,77.0,29.95,WNW,303,1.0,-999.0,74,-99.99,,,0.00,weatherlink.com 1.10,2013-07-12 13:30:00,
2013-07-12 09:45:00,85.7,77.0,29.95,SW,227,0.0,-999.0,74,-99.99,,,0.00,weatherlink.com 1.10,2013-07-12 13:45:00,
2013-07-12 10:00:00,86.1,76.0,29.95,WNW,288,0.0,-999.0,72,-99.99,,,0.00,weatherlink.com 1.10,2013-07-12 14:00:00,
2013-07-12 10:15:00,87.5,77.0,29.95,SSW,198,0.0,-999.0,71,-99.99,,,0.00,weatherlink.com 1.10,2013-07-12 14:15:00,
2013-07-12 10:30:00,87.3,76.0,29.95,WNW,292,2.0,-999.0,68,-99.99,,,0.00,weatherlink.com 1.10,2013-07-12 14:30:00,
2013-07-12 10:45:00,88.3,76.0,29.95,NW,317,2.0,-999.0,67,-99.99,,,0.00,weatherlink.com 1.10,2013-07-12 14:45:00,
2013-07-12 11:00:00,89.0,76.0,29.95,SW,229,0.0,-999.0,65,-99.99,,,0.00,weatherlink.com 1.10,2013-07-12 15:00:00,
2013-07-12 11:15:00,89.9,75.0,29.95,South,178,1.0,-999.0,62,-99.99,,,0.00,weatherlink.com 1.10,2013-07-12 15:15:00,
2013-07-12 11:30:00,91.0,74.0,29.95,South,190,0.0,-999.0,58,-99.99,,,0.00,weatherlink.com 1.10,2013-07-12 15:30:00,
2013-07-12 11:45:00,90.8,75.0,29.95,West,264,0.0,-999.0,60,-99.99,,,0.00,weatherlink.com 1.10,2013-07-12 15:45:00,
2013-07-12 12:00:00,88.8,75.0,29.95,WNW,291,1.0,-999.0,64,-99.99,,,0.00,weatherlink.com 1.10,2013-07-12 16:00:00,
2013-07-12 12:15:00,85.8,72.0,29.95,SW,214,3.0,-999.0,64,-99.99,,,0.00,weatherlink.com 1.10,2013-07-12 16:15:00,
2013-07-12 12:30:00,79.0,72.0,29.96,East,88,4.0,-999.0,80,-99.99,,,0.27,weatherlink.com 1.10,2013-07-12 16:30:00,
2013-07-12 12:45:00,75.9,71.0,29.94,South,183,3.0,-999.0,85,-99.99,,,0.44,weatherlink.com 1.10,2013-07-12 16:45:00,
2013-07-12 13:15:00,76.5,74.0,29.94,SSE,155,0.0,-999.0,91,-99.99,,,0.46,weatherlink.com 1.10,2013-07-12 17:15:00,
2013-07-12 13:30:00,76.9,74.0,29.93,SW,217,1.0,-999.0,90,-99.99,,,0.46,weatherlink.com 1.10,2013-07-12 17:30:00,
2013-07-12 13:45:00,78.3,75.0,29.93,WSW,256,0.0,-999.0,88,-99.99,,,0.46,weatherlink.com 1.10,2013-07-12 17:45:00,
2013-07-12 14:00:00,79.6,75.0,29.93,South,182,2.0,-999.0,85,-99.99,,,0.46,weatherlink.com 1.10,2013-07-12 18:00:00,
2013-07-12 14:15:00,81.0,77.0,29.92,SE,142,2.0,-999.0,86,-99.99,,,0.46,weatherlink.com 1.10,2013-07-12 18:15:00,
2013-07-12 14:30:00,83.0,77.0,29.92,SW,227,1.0,-999.0,82,-99.99,,,0.46,weatherlink.com 1.10,2013-07-12 18:30:00,
2013-07-12 14:45:00,85.7,76.0,29.92,South,182,2.0,-999.0,73,-99.99,,,0.46,weatherlink.com 1.10,2013-07-12 18:45:00,
2013-07-12 15:00:00,87.8,77.0,29.91,SSW,207,3.0,-999.0,71,-99.99,,,0.46,weatherlink.com 1.10,2013-07-12 19:00:00,
2013-07-12 15:15:00,89.2,75.0,29.91,SSE,163,4.0,-999.0,64,-99.99,,,0.46,weatherlink.com 1.10,2013-07-12 19:15:00,
2013-07-12 15:30:00,90.6,76.0,29.90,SSW,192,1.0,-999.0,62,-99.99,,,0.46,weatherlink.com 1.10,2013-07-12 19:30:00,
2013-07-12 15:45:00,91.0,75.0,29.90,South,169,1.0,-999.0,59,-99.99,,,0.46,weatherlink.com 1.10,2013-07-12 19:45:00,
2013-07-12 16:00:00,91.5,75.0,29.90,SSE,161,2.0,-999.0,58,-99.99,,,0.46,weatherlink.com 1.10,2013-07-12 20:00:00,
2013-07-12 16:15:00,92.3,75.0,29.90,South,175,1.0,-999.0,57,-99.99,,,0.46,weatherlink.com 1.10,2013-07-12 20:15:00,
2013-07-12 16:45:00,92.3,75.0,29.89,West,277,0.0,-999.0,58,-99.99,,,0.46,weatherlink.com 1.10,2013-07-12 20:45:00,
2013-07-12 17:00:00,91.6,75.0,29.89,South,172,1.0,-999.0,59,-99.99,,,0.46,weatherlink.com 1.10,2013-07-12 21:00:00,
2013-07-12 17:15:00,92.6,75.0,29.89,SSW,202,0.0,-999.0,56,-99.99,,,0.46,weatherlink.com 1.10,2013-07-12 21:15:00,
2013-07-12 17:30:00,90.9,75.0,29.89,South,176,0.0,-999.0,60,-99.99,,,0.46,weatherlink.com 1.10,2013-07-12 21:30:00,
2013-07-12 18:01:00,85.9,74.0,29.89,ESE,121,2.0,-999.0,68,-99.99,,,0.46,weatherlink.com 1.10,2013-07-12 22:01:00,
2013-07-12 18:16:00,83.2,74.0,29.92,NNE,16,5.0,-999.0,74,-99.99,,,0.46,weatherlink.com 1.10,2013-07-12 22:16:00,
2013-07-12 18:46:00,77.6,73.0,29.92,WNW,287,3.0,-999.0,85,-99.99,,,0.46,weatherlink.com 1.10,2013-07-12 22:46:00,
2013-07-12 19:01:00,77.6,72.0,29.92,NE,55,1.0,-999.0,83,-99.99,,,0.46,weatherlink.com 1.10,2013-07-12 23:01:00,
2013-07-12 19:16:00,78.0,71.0,29.92,NE,53,2.0,-999.0,80,-99.99,,,0.46,weatherlink.com 1.10,2013-07-12 23:16:00,
2013-07-12 19:31:00,78.1,72.0,29.93,NNE,22,0.0,-999.0,81,-99.99,,,0.46,weatherlink.com 1.10,2013-07-12 23:31:00,
2013-07-12 19:46:00,78.0,72.0,29.93,WNW,294,0.0,-999.0,82,-99.99,,,0.46,weatherlink.com 1.10,2013-07-12 23:46:00,
2013-07-12 20:01:00,77.5,73.0,29.93,East,82,0.0,-999.0,85,-99.99,,,0.46,weatherlink.com 1.10,2013-07-13 00:01:00,
2013-07-12 21:01:00,77.1,72.0,29.93,SE,146,0.0,-999.0,84,-99.99,,,0.46,weatherlink.com 1.10,2013-07-13 01:01:00,
2013-07-12 21:16:00,76.8,72.0,29.93,SE,146,0.0,-999.0,84,-99.99,,,0.46,weatherlink.com 1.10,2013-07-13 01:16:00,
2013-07-12 21:31:00,76.9,73.0,29.94,SW,225,0.0,-999.0,86,-99.99,,,0.46,weatherlink.com 1.10,2013-07-13 01:31:00,
2013-07-12 21:46:00,76.8,73.0,29.94,WNW,287,0.0,-999.0,88,-99.99,,,0.46,weatherlink.com 1.10,2013-07-13 01:46:00,
2013-07-12 22:01:00,76.9,73.0,29.94,WNW,288,0.0,-999.0,88,-99.99,,,0.46,weatherlink.com 1.10,2013-07-13 02:01:00,
2013-07-12 22:16:00,76.8,73.0,29.95,WNW,287,0.0,-999.0,88,-99.99,,,0.46,weatherlink.com 1.10,2013-07-13 02:16:00,
2013-07-12 22:46:00,76.5,74.0,29.95,WNW,288,1.0,-999.0,90,-99.99,,,0.46,weatherlink.com 1.10,2013-07-13 02:46:00,
2013-07-12 23:01:00,76.8,73.0,29.95,WNW,287,0.0,-999.0,89,-99.99,,,0.46,weatherlink.com 1.10,2013-07-13 03:01:00,
2013-07-12 23:16:00,76.8,74.0,29.95,WNW,288,0.0,-999.0,90,-99.99,,,0.46,weatherlink.com 1.10,2013-07-13 03:16:00,
2013-07-12 23:31:00,77.0,74.0,29.95,WNW,288,0.0,-999.0,90,-99.99,,,0.46,weatherlink.com 1.10,2013-07-13 03:31:00,
2013-07-12 23:46:00,76.9,74.0,29.95,WNW,287,1.0,-999.0,90,-99.99,,,0.46,weatherlink.com 1.10,2013-07-13 03:46:00,